[[{"header":{"parameterUnit":"m.s-1","parameterCategory":1,"la1":30.2991,"la2":30.254,"lo1":-89.0895,"lo2":-89.0444,"dy":0.0017,"dx":0.0017,"nx":28,"ny":28,"refTime":"2023-08-24T03:00:00:Z","depth":0,"parameterNumber":2,"parameterNumberName":"U-component_of_WINDS"},"data":[0,0,0,0,0,0,0,0,0,0,0,0,0,0,0,0,0,0,0,0,0,0,0,0,0,0,0,0,0,0,0,0,0,0,0,0,0,0,0,0,0,0,0,0,0,0,0,0,0,0,0,0,0,0,0,0,0,0,0.2478,0.2477,0,0.2426,0.2425,0.2425,0.2403,0.2403,0.2403,0.2404,0.2347,0.2346,0.2344,0,0,0,0,0,0,0,0,0,0,0,0,0,0.2556,0.2555,0.2478,0.2477,0.2477,0.2426,0.2425,0.2425,0.2403,0.2403,0.2403,0.2404,0.2348,0.2346,0.2344,0,0,0,0,0,0,0,0,0,0,0,0,0,0.2515,0.2554,0.2478,0.246,0.2458,0.2426,0.2425,0.2425,0.2403,0.2403,0.2403,0.2404,0.2348,0.2346,0.2344,0.2325,0,0,0.2336,0.2335,0,0,0,0,0,0,0,0,0.2517,0.2512,0.2463,0.2461,0.2459,0.2421,0.2432,0.2391,0.2403,0.2424,0.2404,0.2404,0.2372,0.2367,0.2357,0.2323,0.232,0.2336,0.2335,0.2334,0.2333,0,0,0,0,0,0,0,0.252,0.2514,0.2457,0.2463,0.246,0.2454,0.2448,0.2424,0.2397,0.2422,0.242,0.2415,0.237,0.2359,0.2356,0.232,0.2336,0.2334,0.2333,0.2332,0.2268,0.2267,0,0,0,0,0,0,0.2526,0.2517,0.2459,0.2456,0.2489,0.2452,0.2446,0.2433,0.2397,0.2392,0.2415,0.2414,0.2363,0.2358,0.2354,0.233,0.2334,0.2331,0.233,0.2268,0.2268,0.2267,0,0,0,0,0,0,0.2528,0.2521,0.2461,0.2486,0.2478,0.245,0.2437,0.2432,0.2421,0.2392,0.2387,0.2409,0.2363,0.2357,0.2333,0.2327,0.233,0.2328,0.2268,0.2268,0.2267,0.2282,0,0,0,0,0,0,0.253,0.2522,0.2515,0.2486,0.2476,0.2442,0.2436,0.2431,0.2417,0.2416,0.2385,0.238,0.2363,0.2337,0.233,0.2324,0.2326,0.2269,0.2268,0.2268,0.2282,0.2282,0.2282,0,0,0,0,0,0.2533,0.2521,0.2515,0.2508,0.2468,0.2442,0.2436,0.2418,0.2417,0.241,0.2391,0.2381,0.2329,0.2334,0.2327,0.232,0.2269,0.2268,0.2268,0.2282,0.2282,0.2282,0,0,0,0,0,0,0.2549,0.2517,0.251,0.2488,0.2468,0.2438,0.2428,0.2419,0.2398,0.2397,0.2375,0.2368,0.2346,0.233,0.2337,0.2301,0.2298,0.2296,0.2311,0.2311,0.2312,0.2315,0.2324,0,0,0,0,0,0.2551,0.2533,0.2505,0.2488,0.2479,0.2456,0.2444,0.2431,0.2409,0.24,0.238,0.2358,0.2337,0.2323,0.2302,0.228,0.2272,0.2271,0.2272,0.2272,0.227,0.2257,0.2256,0.2265,0.2265,0.2265,0,0,0.2552,0.2532,0.2523,0.2491,0.2474,0.2456,0.2448,0.2429,0.2415,0.2397,0.2373,0.2358,0.2332,0.2309,0.2297,0.2295,0.2266,0.2271,0.2272,0.227,0.2256,0.2256,0.2255,0.2265,0.2265,0.2265,0,0,0.2546,0.253,0.2514,0.2498,0.2473,0.2457,0.2454,0.2425,0.2415,0.2391,0.2377,0.2359,0.2324,0.2306,0.2292,0.228,0.227,0.2274,0.2275,0.2262,0.2262,0.2261,0.2256,0.2255,0.2272,0.2272,0.2272,0,0.2551,0.2524,0.2507,0.2489,0.2475,0.2459,0.2443,0.2427,0.2396,0.2387,0.2385,0.234,0.2322,0.2294,0.2291,0.2281,0.2275,0.2277,0.2263,0.2262,0.2261,0.2257,0.2255,0.2273,0.2273,0.2273,0.2273,0,0.2532,0.2513,0.2503,0.2475,0.246,0.2443,0.2422,0.2409,0.2399,0.2383,0.2359,0.2336,0.231,0.2303,0.2292,0.2274,0.2273,0.2268,0.2265,0.2261,0.2256,0.2255,0.2274,0.2274,0.2274,0.2273,0,0,0.2533,0.2497,0.2493,0.248,0.2452,0.2437,0.2419,0.2394,0.2384,0.2363,0.2346,0.2317,0.2312,0.2297,0.2283,0.2272,0.2264,0.2268,0.2267,0.2268,0.2242,0.2246,0.2244,0.2258,0.2257,0.2257,0.2244,0,0.2523,0.2491,0.2475,0.245,0.2432,0.2417,0.2401,0.2382,0.2367,0.2349,0.2332,0.2312,0.2307,0.2298,0.2286,0.2268,0.2259,0.2268,0.2241,0.2241,0.2248,0.2242,0.2245,0.2234,0.2242,0.2242,0.2242,0,0.2506,0.2487,0.246,0.2435,0.2427,0.2413,0.2389,0.2373,0.235,0.234,0.2324,0.2311,0.2291,0.229,0.2261,0.2268,0.2256,0.2246,0.2245,0.2241,0.224,0.2237,0.223,0.2229,0.2238,0.2239,0.2239,0,0.251,0.2477,0.2457,0.2446,0.2416,0.2406,0.2393,0.2371,0.2357,0.2337,0.2328,0.2305,0.2292,0.2274,0.2255,0.2256,0.2228,0.2226,0.2218,0.2219,0.2212,0.2213,0.2203,0.2206,0.2206,0.2206,0.2206,0,0.25,0.2483,0.2458,0.2445,0.2427,0.2409,0.239,0.2376,0.2356,0.234,0.2326,0.231,0.2287,0.2269,0.2254,0.2232,0.2226,0.2217,0.2213,0.2218,0.2219,0.2209,0.2209,0.2205,0.2206,0.2206,0.2206,0,0.25,0.2482,0.2459,0.2432,0.2425,0.2413,0.239,0.2376,0.2362,0.2341,0.2335,0.2311,0.2289,0.2269,0.2239,0.2229,0.2207,0.2202,0.2215,0.2213,0.2206,0.2207,0.2189,0.2185,0.2192,0.2192,0.2192,0,0.2494,0.2481,0.2454,0.2443,0.243,0.2412,0.2398,0.238,0.2366,0.234,0.233,0.2307,0.2287,0.2253,0.2232,0.2209,0.2203,0.2199,0.22,0.2205,0.2203,0.2203,0.2202,0.2199,0.2199,0.2199,0.2199,0,0.2485,0.2477,0.2459,0.2438,0.2423,0.2405,0.2387,0.2378,0.2356,0.2342,0.2319,0.2304,0.2275,0.2252,0.2227,0.2212,0.2201,0.2199,0.2196,0.22,0.2208,0.2203,0.2215,0.2199,0.2199,0.2199,0.2199,0.2199,0.2481,0.247,0.2449,0.2429,0.2414,0.2397,0.2384,0.2368,0.2349,0.2324,0.2314,0.2292,0.2269,0.2235,0.222,0.2202,0.22,0.2195,0.2194,0.2193,0.2194,0.2212,0.2197,0.2197,0.2197,0.2197,0.2197,0,0.2472,0.2458,0.244,0.2416,0.24,0.2393,0.2373,0.236,0.234,0.2321,0.2303,0.2277,0.2255,0.2233,0.221,0.2199,0.2194,0.2193,0.2193,0.219,0.2197,0.2202,0.2198,0.2198,0.2198,0.2198,0.2198,0.2198,0.2465,0.2444,0.2434,0.2406,0.2392,0.2371,0.236,0.2344,0.2328,0.2301,0.2283,0.227,0.2249,0.2224,0.2203,0.2197,0.2189,0.219,0.2183,0.219,0.219,0.219,0.2194,0.2189,0.2189,0.2177,0.2177,0.2177]},{"header":{"parameterUnit":"m.s-1","parameterCategory":1,"la1":30.2991,"la2":30.254,"lo1":-89.0895,"lo2":-89.0444,"dy":0.0017,"dx":0.0017,"nx":28,"ny":28,"refTime":"2023-08-24T03:00:00:Z","depth":0,"parameterNumber":3,"parameterNumberName":"V-component_of_WINDS"},"data":[0,0,0,0,0,0,0,0,0,0,0,0,0,0,0,0,0,0,0,0,0,0,0,0,0,0,0,0,0,0,0,0,0,0,0,0,0,0,0,0,0,0,0,0,0,0,0,0,0,0,0,0,0,0,0,0,0,0,-0.1077,-0.1077,0,-0.1045,-0.1045,-0.1044,-0.1034,-0.1034,-0.1034,-0.1034,-0.0999,-0.0998,-0.0997,0,0,0,0,0,0,0,0,0,0,0,0,0,-0.1128,-0.1128,-0.1078,-0.1077,-0.1077,-0.1045,-0.1045,-0.1044,-0.1034,-0.1034,-0.1034,-0.1034,-0.0999,-0.0998,-0.0996,0,0,0,0,0,0,0,0,0,0,0,0,0,-0.1102,-0.1127,-0.1078,-0.1068,-0.1067,-0.1045,-0.1045,-0.1044,-0.1034,-0.1034,-0.1034,-0.1034,-0.0999,-0.0998,-0.0996,-0.0982,0,0,-0.0991,-0.0991,0,0,0,0,0,0,0,0,-0.1104,-0.11,-0.107,-0.1068,-0.1067,-0.1044,-0.105,-0.1023,-0.1034,-0.1046,-0.1034,-0.1034,-0.1013,-0.1011,-0.1004,-0.098,-0.0979,-0.0991,-0.099,-0.0989,-0.0989,0,0,0,0,0,0,0,-0.1105,-0.1102,-0.1065,-0.1069,-0.1068,-0.1064,-0.1061,-0.1045,-0.1029,-0.1045,-0.1044,-0.1041,-0.1013,-0.1006,-0.1003,-0.0978,-0.0991,-0.099,-0.0989,-0.0988,-0.094,-0.094,0,0,0,0,0,0,-0.1109,-0.1103,-0.1066,-0.1064,-0.1086,-0.1063,-0.1059,-0.1051,-0.1029,-0.1026,-0.104,-0.104,-0.1008,-0.1005,-0.1002,-0.0983,-0.0989,-0.0988,-0.0987,-0.0941,-0.094,-0.094,0,0,0,0,0,0,-0.111,-0.1106,-0.1067,-0.1083,-0.1078,-0.1062,-0.1053,-0.105,-0.1043,-0.1026,-0.1022,-0.1036,-0.1008,-0.1004,-0.0987,-0.0982,-0.0987,-0.0986,-0.0941,-0.094,-0.094,-0.0946,0,0,0,0,0,0,-0.1112,-0.1106,-0.1101,-0.1083,-0.1077,-0.1053,-0.1052,-0.1049,-0.1041,-0.104,-0.1021,-0.1018,-0.1008,-0.0989,-0.0985,-0.098,-0.0984,-0.0941,-0.0941,-0.094,-0.0946,-0.0946,-0.0946,0,0,0,0,0,-0.1114,-0.1104,-0.1101,-0.1097,-0.107,-0.1053,-0.105,-0.1039,-0.104,-0.1035,-0.1023,-0.1018,-0.0983,-0.0988,-0.0983,-0.0977,-0.0942,-0.0941,-0.094,-0.0947,-0.0946,-0.0946,0,0,0,0,0,0,-0.1121,-0.1101,-0.1098,-0.1082,-0.107,-0.1051,-0.1044,-0.1039,-0.1026,-0.1026,-0.1013,-0.1008,-0.0992,-0.0983,-0.0988,-0.0961,-0.0962,-0.096,-0.0968,-0.0968,-0.0968,-0.097,-0.0983,0,0,0,0,0,-0.1121,-0.1109,-0.1092,-0.108,-0.1074,-0.106,-0.1052,-0.1045,-0.1031,-0.1026,-0.1013,-0.0999,-0.0985,-0.0976,-0.0962,-0.0945,-0.094,-0.0938,-0.0938,-0.0938,-0.0937,-0.0927,-0.0926,-0.0938,-0.0938,-0.0938,0,0,-0.112,-0.1108,-0.1101,-0.1081,-0.107,-0.1058,-0.1056,-0.1042,-0.1033,-0.1024,-0.1007,-0.0997,-0.0981,-0.0964,-0.0955,-0.0955,-0.0932,-0.0937,-0.0937,-0.0936,-0.0926,-0.0925,-0.0924,-0.0937,-0.0937,-0.0937,0,0,-0.1113,-0.1102,-0.1091,-0.1081,-0.1065,-0.1056,-0.1053,-0.1036,-0.1029,-0.1013,-0.1005,-0.0993,-0.0969,-0.0958,-0.0949,-0.0937,-0.0932,-0.0933,-0.0931,-0.0922,-0.0921,-0.092,-0.0915,-0.0914,-0.0931,-0.0931,-0.0931,0,-0.1114,-0.1096,-0.1086,-0.1073,-0.1064,-0.1056,-0.1044,-0.1034,-0.1014,-0.1008,-0.1008,-0.0978,-0.0966,-0.0946,-0.0943,-0.0936,-0.0932,-0.0935,-0.0922,-0.0921,-0.092,-0.0915,-0.0914,-0.0932,-0.0932,-0.0932,-0.0932,0,-0.1097,-0.1085,-0.1077,-0.106,-0.105,-0.1037,-0.1025,-0.1016,-0.101,-0.1001,-0.0984,-0.097,-0.0952,-0.0947,-0.0941,-0.0926,-0.0927,-0.0924,-0.0925,-0.0919,-0.0915,-0.0913,-0.0932,-0.0932,-0.0932,-0.0932,0,0,-0.1094,-0.1071,-0.1068,-0.106,-0.1042,-0.1032,-0.1019,-0.1003,-0.0996,-0.0982,-0.0971,-0.095,-0.0948,-0.0938,-0.093,-0.0922,-0.0914,-0.0921,-0.092,-0.092,-0.0896,-0.0898,-0.0897,-0.091,-0.091,-0.091,-0.0898,0,-0.1084,-0.1062,-0.1052,-0.1034,-0.1022,-0.1014,-0.1003,-0.099,-0.0981,-0.0969,-0.0959,-0.0945,-0.0943,-0.0937,-0.0928,-0.0917,-0.0909,-0.0917,-0.0899,-0.0898,-0.0903,-0.0895,-0.0896,-0.0886,-0.0896,-0.0896,-0.0896,0,-0.107,-0.1057,-0.1038,-0.1022,-0.1016,-0.1007,-0.0991,-0.098,-0.0965,-0.0959,-0.0948,-0.0941,-0.0926,-0.0928,-0.0907,-0.0913,-0.0905,-0.0898,-0.0897,-0.0895,-0.0897,-0.0892,-0.0883,-0.0881,-0.0893,-0.0893,-0.0893,0,-0.1069,-0.1047,-0.1033,-0.1026,-0.1007,-0.1,-0.0991,-0.0977,-0.0968,-0.0954,-0.0948,-0.0933,-0.0924,-0.0912,-0.09,-0.0902,-0.0881,-0.0881,-0.0875,-0.0875,-0.087,-0.0871,-0.086,-0.0865,-0.0865,-0.0865,-0.0865,0,-0.1059,-0.1047,-0.1032,-0.1023,-0.101,-0.0999,-0.0986,-0.0977,-0.0964,-0.0953,-0.0945,-0.0934,-0.092,-0.0907,-0.0898,-0.0882,-0.0878,-0.0872,-0.087,-0.0873,-0.0874,-0.0867,-0.0868,-0.0865,-0.0865,-0.0865,-0.0865,0,-0.1056,-0.1045,-0.1029,-0.1012,-0.1008,-0.0999,-0.0984,-0.0975,-0.0966,-0.0952,-0.0947,-0.0932,-0.0917,-0.0905,-0.0884,-0.0878,-0.0861,-0.0858,-0.0867,-0.0865,-0.086,-0.0861,-0.0844,-0.0841,-0.0849,-0.0849,-0.0849,0,-0.105,-0.1041,-0.1024,-0.1016,-0.1008,-0.0996,-0.0987,-0.0976,-0.0967,-0.0949,-0.0942,-0.0926,-0.0913,-0.0889,-0.0876,-0.086,-0.0857,-0.0852,-0.0854,-0.0857,-0.0856,-0.0857,-0.0856,-0.0852,-0.0852,-0.0852,-0.0852,0,-0.1041,-0.1036,-0.1024,-0.1011,-0.1001,-0.0989,-0.0977,-0.0971,-0.0957,-0.0947,-0.0932,-0.0922,-0.0902,-0.0886,-0.0869,-0.0859,-0.0853,-0.0851,-0.0849,-0.0852,-0.0857,-0.0854,-0.0866,-0.0851,-0.0852,-0.0852,-0.0852,-0.0852,-0.1036,-0.1028,-0.1015,-0.1002,-0.0992,-0.0981,-0.0972,-0.0962,-0.0949,-0.0933,-0.0926,-0.0911,-0.0896,-0.0872,-0.0862,-0.0849,-0.0849,-0.0845,-0.0844,-0.0844,-0.0844,-0.0859,-0.0846,-0.0846,-0.0846,-0.0846,-0.0846,0,-0.1027,-0.1018,-0.1007,-0.0991,-0.098,-0.0976,-0.0963,-0.0954,-0.0941,-0.0928,-0.0916,-0.0898,-0.0883,-0.0869,-0.0852,-0.0845,-0.0841,-0.0841,-0.0841,-0.0839,-0.0846,-0.085,-0.0844,-0.0844,-0.0844,-0.0844,-0.0844,-0.0844,-0.1021,-0.1007,-0.1001,-0.0982,-0.0973,-0.0959,-0.0951,-0.0941,-0.0931,-0.0912,-0.09,-0.0891,-0.0877,-0.086,-0.0845,-0.0841,-0.0836,-0.0836,-0.0831,-0.0838,-0.0838,-0.0839,-0.0842,-0.0835,-0.0835,-0.0825,-0.0825,-0.0825]}]]